User: anonymous   Login
Location: Unspecified
(0.0000°N, 0.0000°E)
Time: 08:13:30
(UTC+00:00)
Language:

NOAA 17 - Orbit

View from above orbital plane
View from above orbital plane
View from above satellite
View from above satellite

Ground track
Ground track

The orbit data is extracted from the following two-line orbital elements,

1 27453U 02032A   16239.49281589  .00000019  00000-0  25780-4 0  9991
2 27453  98.3904 210.1203 0011521 349.5959  10.4981 14.24956861736790
Epoch (UTC): 26 August 2016 11:49:39
Eccentricity: 0.0011521
inclination: 98.3904°
perigee height: 800 km
apogee height: 817 km
right ascension of ascending node: 210.1203°
argument of perigee: 349.5959°
revolutions per day: 14.24956861
mean anomaly at epoch: 10.4981°
orbit number at epoch: 73679

The dashed part of the orbit path shows where the satellite is in the earth's shadow,  

DLR